AAY714 KBZN-KIWA

Flight info

Callsign AAY714
Flight time 1h 50m
Altitude 35000
Route BGSKY2 DBS TCH J9 FFU J11 CORKR FLG DSERT2
Aircraft A320/M-SDE3FGHIRWY/LB1

Departure

Time 2026-05-06 19:46
Airport Bozeman Yellowstone International Airport (KBZN)

Arrival

Time 2026-05-06 21:36
Airport Mesa Gateway Airport (KIWA)
Time Latitude Longitude Altitude Speed Heading
2026-05-06 19:20 45.77975 -111.16162 4456 ft 0 kts 257°
2026-05-06 19:21 45.77974 -111.16166 4456 ft 0 kts 257°
2026-05-06 19:39 45.77974 -111.16164 4456 ft 2 kts 257°
2026-05-06 19:40 45.77979 -111.16128 4455 ft 4 kts 265°
2026-05-06 19:40 45.77979 -111.16090 4455 ft 4 kts 283°
2026-05-06 19:40 45.77969 -111.16057 4455 ft 3 kts 316°
2026-05-06 19:40 45.77967 -111.16055 4455 ft 0 kts 318°
2026-05-06 19:42 45.77972 -111.16061 4455 ft 5 kts 318°
2026-05-06 19:42 45.78017 -111.16066 4454 ft 7 kts 25°
2026-05-06 19:42 45.78063 -111.16041 4453 ft 9 kts 358°
2026-05-06 19:43 45.78125 -111.16109 4452 ft 15 kts 315°
2026-05-06 19:43 45.78216 -111.16236 4451 ft 22 kts 316°
2026-05-06 19:43 45.78338 -111.16405 4449 ft 26 kts 315°
2026-05-06 19:43 45.78469 -111.16588 4447 ft 27 kts 316°
2026-05-06 19:44 45.78594 -111.16762 4446 ft 23 kts 316°
2026-05-06 19:44 45.78674 -111.16815 4445 ft 11 kts 15°
2026-05-06 19:44 45.78732 -111.16739 4445 ft 11 kts 50°
2026-05-06 19:44 45.78771 -111.16662 4446 ft 7 kts 58°
2026-05-06 19:45 45.78776 -111.16602 4447 ft 5 kts 109°
2026-05-06 19:45 45.78764 -111.16582 4447 ft 0 kts 134°
2026-05-06 19:45 45.78650 -111.16423 4448 ft 58 kts 136°
2026-05-06 19:45 45.78193 -111.15791 4453 ft 122 kts 136°
2026-05-06 19:46 45.77471 -111.14789 4496 ft 166 kts 137°
2026-05-06 19:46 45.76637 -111.13697 5220 ft 161 kts 148°
2026-05-06 19:46 45.75611 -111.13210 5688 ft 160 kts 189°
2026-05-06 19:46 45.74573 -111.13865 6057 ft 170 kts 212°
2026-05-06 19:47 45.73546 -111.14754 6410 ft 178 kts 209°
2026-05-06 19:47 45.72401 -111.15548 6583 ft 193 kts 208°
2026-05-06 19:47 45.71096 -111.16372 6701 ft 216 kts 208°
2026-05-06 19:47 45.69645 -111.17298 6866 ft 239 kts 209°
2026-05-06 19:48 45.68080 -111.18307 7424 ft 253 kts 208°
2026-05-06 19:48 45.66461 -111.19366 8147 ft 258 kts 213°
2026-05-06 19:48 45.65044 -111.20879 8810 ft 254 kts 237°
2026-05-06 19:48 45.64211 -111.23148 9118 ft 266 kts 257°
2026-05-06 19:49 45.63791 -111.25760 9724 ft 273 kts 265°
2026-05-06 19:49 45.63502 -111.28458 10324 ft 280 kts 266°
2026-05-06 19:49 45.63202 -111.31325 10538 ft 304 kts 265°
2026-05-06 19:49 45.62838 -111.34384 10908 ft 319 kts 263°
2026-05-06 19:50 45.62410 -111.37521 11550 ft 325 kts 262°
2026-05-06 19:50 45.61937 -111.40670 12227 ft 328 kts 261°
2026-05-06 19:50 45.61425 -111.43870 12884 ft 332 kts 261°
2026-05-06 19:50 45.60893 -111.47105 13545 ft 337 kts 261°
2026-05-06 19:51 45.60349 -111.50378 14164 ft 340 kts 261°
2026-05-06 19:51 45.59802 -111.53682 14745 ft 344 kts 261°
2026-05-06 19:51 45.59234 -111.57023 15294 ft 349 kts 258°
2026-05-06 19:51 45.58257 -111.60243 15798 ft 360 kts 243°
2026-05-06 19:52 45.56681 -111.63095 16336 ft 373 kts 228°
2026-05-06 19:52 45.54576 -111.65337 16873 ft 385 kts 213°
2026-05-06 19:52 45.52103 -111.66942 17389 ft 393 kts 207°
2026-05-06 19:52 45.49572 -111.68479 17937 ft 398 kts 207°
2026-05-06 19:53 45.47008 -111.70032 18418 ft 403 kts 207°
2026-05-06 19:53 45.44416 -111.71605 18864 ft 407 kts 207°
2026-05-06 19:53 45.41793 -111.73200 19318 ft 411 kts 207°
2026-05-06 19:53 45.39155 -111.74808 19776 ft 415 kts 207°
2026-05-06 19:54 45.36491 -111.76431 20231 ft 419 kts 207°
2026-05-06 19:54 45.33797 -111.78070 20644 ft 423 kts 207°
2026-05-06 19:54 45.31086 -111.79719 21098 ft 426 kts 207°
2026-05-06 19:54 45.28249 -111.81059 21535 ft 434 kts 197°
2026-05-06 19:55 45.25297 -111.82068 22003 ft 438 kts 197°
2026-05-06 19:55 45.22318 -111.83079 22423 ft 442 kts 197°
2026-05-06 19:55 45.19311 -111.84099 22833 ft 446 kts 197°
2026-05-06 19:55 45.16283 -111.85125 23290 ft 449 kts 197°
2026-05-06 19:56 45.13232 -111.86161 23697 ft 454 kts 197°
2026-05-06 19:56 45.10188 -111.87196 24032 ft 457 kts 197°
2026-05-06 19:56 45.07088 -111.88249 24385 ft 460 kts 197°
2026-05-06 19:56 45.03965 -111.89307 24749 ft 463 kts 197°
2026-05-06 19:57 45.00818 -111.90371 25059 ft 467 kts 197°
2026-05-06 19:57 44.97650 -111.91437 25357 ft 470 kts 197°
2026-05-06 19:57 44.94468 -111.92505 25708 ft 471 kts 197°
2026-05-06 19:57 44.91269 -111.93581 26039 ft 474 kts 197°
2026-05-06 19:58 44.88052 -111.94663 26370 ft 476 kts 197°
2026-05-06 19:58 44.84824 -111.95748 26687 ft 479 kts 197°
2026-05-06 19:58 44.81574 -111.96840 27003 ft 481 kts 197°
2026-05-06 19:58 44.78306 -111.97937 27295 ft 484 kts 197°
2026-05-06 19:59 44.75012 -111.99043 27555 ft 487 kts 197°
2026-05-06 19:59 44.71708 -112.00154 27852 ft 490 kts 197°
2026-05-06 19:59 44.68382 -112.01271 28135 ft 492 kts 197°
2026-05-06 19:59 44.65041 -112.02389 28398 ft 495 kts 197°
2026-05-06 20:00 44.61680 -112.03509 28653 ft 497 kts 197°
2026-05-06 20:00 44.58311 -112.04627 28946 ft 499 kts 197°
2026-05-06 20:00 44.54925 -112.05753 29248 ft 501 kts 197°
2026-05-06 20:00 44.51526 -112.06883 29511 ft 503 kts 197°
2026-05-06 20:01 44.48116 -112.08012 29763 ft 505 kts 197°
2026-05-06 20:01 44.44693 -112.09145 30026 ft 507 kts 197°
2026-05-06 20:01 44.41253 -112.10284 30251 ft 509 kts 197°
2026-05-06 20:01 44.37805 -112.11428 30453 ft 510 kts 197°
2026-05-06 20:02 44.34352 -112.12572 30676 ft 511 kts 197°
2026-05-06 20:02 44.30894 -112.13713 30936 ft 510 kts 197°
2026-05-06 20:02 44.27439 -112.14847 31227 ft 509 kts 197°
2026-05-06 20:02 44.23996 -112.15974 31565 ft 507 kts 197°
2026-05-06 20:03 44.20571 -112.17096 31880 ft 505 kts 197°
2026-05-06 20:03 44.17156 -112.18216 32183 ft 504 kts 197°
2026-05-06 20:03 44.13749 -112.19335 32474 ft 503 kts 197°
2026-05-06 20:03 44.10375 -112.20330 32767 ft 503 kts 191°
2026-05-06 20:04 44.06879 -112.20726 33055 ft 505 kts 182°
2026-05-06 20:04 44.03367 -112.20540 33337 ft 505 kts 178°
2026-05-06 20:04 43.99865 -112.20273 33624 ft 504 kts 178°
2026-05-06 20:04 43.96363 -112.20008 33909 ft 503 kts 178°
2026-05-06 20:05 43.92861 -112.19747 34155 ft 503 kts 178°
2026-05-06 20:05 43.89365 -112.19488 34378 ft 503 kts 178°
2026-05-06 20:05 43.85871 -112.19234 34598 ft 503 kts 178°
2026-05-06 20:05 43.82375 -112.18983 34808 ft 503 kts 178°
2026-05-06 20:06 43.78887 -112.18729 35002 ft 502 kts 178°
2026-05-06 20:06 43.75394 -112.18470 35138 ft 502 kts 178°
2026-05-06 20:06 43.68441 -112.17957 35141 ft 499 kts 178°
2026-05-06 20:07 43.61509 -112.17460 35148 ft 499 kts 179°
2026-05-06 20:07 43.54569 -112.16969 35183 ft 500 kts 178°
2026-05-06 20:08 43.47622 -112.16456 35184 ft 500 kts 178°
2026-05-06 20:08 43.40668 -112.15941 35178 ft 500 kts 178°
2026-05-06 20:09 43.33718 -112.15438 35175 ft 500 kts 178°
2026-05-06 20:09 43.26768 -112.14935 35147 ft 500 kts 178°
2026-05-06 20:10 43.19814 -112.14437 35150 ft 500 kts 178°
2026-05-06 20:10 43.12862 -112.13945 35155 ft 500 kts 178°
2026-05-06 20:11 43.05914 -112.13445 35147 ft 500 kts 178°
2026-05-06 20:11 42.98968 -112.12943 35146 ft 500 kts 178°
2026-05-06 20:12 42.92030 -112.12448 35143 ft 499 kts 178°
2026-05-06 20:12 42.85132 -112.11968 35140 ft 500 kts 178°
2026-05-06 20:13 42.78188 -112.11470 35134 ft 500 kts 178°
2026-05-06 20:13 42.71247 -112.10976 35136 ft 499 kts 178°
2026-05-06 20:14 42.64310 -112.10488 35127 ft 499 kts 178°
2026-05-06 20:14 42.57375 -112.09992 35133 ft 499 kts 178°
2026-05-06 20:15 42.50439 -112.09497 35128 ft 499 kts 178°
2026-05-06 20:15 42.43499 -112.09024 35129 ft 499 kts 178°
2026-05-06 20:16 42.36554 -112.08555 35123 ft 500 kts 178°
2026-05-06 20:16 42.29606 -112.08068 35128 ft 500 kts 178°
2026-05-06 20:17 42.22660 -112.07571 35131 ft 500 kts 177°
2026-05-06 20:17 42.15709 -112.07077 35131 ft 500 kts 177°
2026-05-06 20:18 42.08763 -112.06603 35128 ft 500 kts 177°
2026-05-06 20:18 42.01807 -112.06133 35151 ft 500 kts 177°
2026-05-06 20:19 41.94858 -112.05648 35172 ft 500 kts 177°
2026-05-06 20:19 41.87911 -112.05163 35194 ft 500 kts 177°
2026-05-06 20:20 41.82140 -112.04768 35181 ft 499 kts 177°
2026-05-06 20:20 41.75204 -112.04297 35183 ft 499 kts 177°
2026-05-06 20:21 41.68271 -112.03814 35179 ft 499 kts 177°
2026-05-06 20:21 41.61340 -112.03336 35173 ft 498 kts 177°
2026-05-06 20:22 41.54405 -112.02867 35174 ft 499 kts 177°
2026-05-06 20:22 41.47473 -112.02401 35135 ft 499 kts 177°
2026-05-06 20:23 41.40538 -112.01922 35143 ft 499 kts 177°
2026-05-06 20:23 41.33601 -112.01450 35156 ft 499 kts 177°
2026-05-06 20:24 41.26665 -112.00985 35165 ft 499 kts 177°
2026-05-06 20:24 41.19729 -112.00511 35170 ft 499 kts 176°
2026-05-06 20:25 41.12841 -112.00046 35178 ft 499 kts 177°
2026-05-06 20:25 41.05866 -111.99585 35176 ft 499 kts 176°
2026-05-06 20:26 40.98934 -111.99121 35168 ft 499 kts 176°
2026-05-06 20:26 40.92044 -111.98659 35188 ft 499 kts 176°
2026-05-06 20:27 40.85109 -111.98192 35191 ft 499 kts 176°
2026-05-06 20:27 40.78175 -111.97704 35192 ft 499 kts 176°
2026-05-06 20:28 40.71244 -111.97189 35200 ft 499 kts 176°
2026-05-06 20:28 40.64308 -111.96685 35204 ft 499 kts 176°
2026-05-06 20:29 40.57377 -111.96200 35218 ft 499 kts 176°
2026-05-06 20:29 40.50457 -111.95704 35195 ft 498 kts 176°
2026-05-06 20:30 40.40068 -111.94953 35159 ft 498 kts 176°
2026-05-06 20:31 40.33151 -111.94453 35160 ft 498 kts 176°
2026-05-06 20:31 40.26230 -111.94238 35168 ft 497 kts 185°
2026-05-06 20:32 40.19363 -111.95237 35164 ft 496 kts 187°
2026-05-06 20:32 40.12499 -111.96239 35157 ft 496 kts 187°
2026-05-06 20:33 40.05638 -111.97229 35103 ft 496 kts 187°
2026-05-06 20:33 39.98785 -111.98217 35106 ft 496 kts 186°
2026-05-06 20:34 39.91976 -111.99199 35102 ft 495 kts 186°
2026-05-06 20:34 39.85083 -112.00193 35100 ft 495 kts 187°
2026-05-06 20:35 39.78286 -112.01184 35089 ft 495 kts 186°
2026-05-06 20:35 39.71445 -112.02166 35089 ft 494 kts 186°
2026-05-06 20:36 39.64608 -112.03139 35079 ft 494 kts 186°
2026-05-06 20:36 39.57768 -112.04120 35072 ft 494 kts 186°
2026-05-06 20:37 39.50935 -112.05103 35063 ft 494 kts 186°
2026-05-06 20:37 39.44093 -112.06072 35058 ft 494 kts 186°
2026-05-06 20:38 39.37255 -112.07034 35063 ft 494 kts 186°
2026-05-06 20:38 39.30419 -112.08009 35062 ft 494 kts 186°
2026-05-06 20:39 39.23582 -112.08982 35061 ft 494 kts 186°
2026-05-06 20:39 39.16743 -112.09951 35083 ft 494 kts 186°
2026-05-06 20:40 39.09910 -112.10919 35114 ft 494 kts 186°
2026-05-06 20:40 39.03086 -112.11874 35134 ft 493 kts 186°
2026-05-06 20:41 38.96264 -112.12824 35133 ft 493 kts 186°
2026-05-06 20:41 38.89448 -112.13785 35130 ft 493 kts 186°
2026-05-06 20:42 38.82680 -112.14730 35124 ft 493 kts 185°
2026-05-06 20:42 38.75866 -112.15676 35112 ft 493 kts 185°
2026-05-06 20:43 38.69049 -112.16623 35082 ft 492 kts 185°
2026-05-06 20:43 38.62239 -112.17575 35062 ft 492 kts 185°
2026-05-06 20:44 38.55432 -112.18532 35063 ft 492 kts 185°
2026-05-06 20:44 38.48627 -112.19477 35053 ft 492 kts 185°
2026-05-06 20:45 38.41828 -112.20411 35062 ft 492 kts 185°
2026-05-06 20:45 38.35024 -112.21346 35057 ft 492 kts 185°
2026-05-06 20:46 38.28221 -112.22287 35043 ft 492 kts 185°
2026-05-06 20:46 38.21417 -112.23227 35033 ft 492 kts 185°
2026-05-06 20:47 38.14609 -112.24159 35034 ft 492 kts 185°
2026-05-06 20:47 38.07804 -112.25091 35016 ft 492 kts 185°
2026-05-06 20:48 38.00998 -112.26026 35005 ft 491 kts 185°
2026-05-06 20:48 37.94249 -112.26952 35077 ft 491 kts 185°
2026-05-06 20:49 37.87461 -112.27873 35118 ft 491 kts 185°
2026-05-06 20:49 37.80673 -112.28793 35156 ft 490 kts 185°
2026-05-06 20:50 37.73895 -112.29717 35178 ft 490 kts 185°
2026-05-06 20:50 37.67115 -112.30605 35161 ft 489 kts 183°
2026-05-06 20:51 37.60325 -112.31103 35121 ft 489 kts 180°
2026-05-06 20:51 37.53527 -112.31376 35065 ft 489 kts 180°
2026-05-06 20:52 37.46717 -112.31710 35007 ft 490 kts 181°
2026-05-06 20:52 37.39905 -112.32131 34936 ft 490 kts 181°
2026-05-06 20:53 37.33095 -112.32583 34923 ft 490 kts 181°
2026-05-06 20:53 37.26281 -112.33001 34931 ft 490 kts 181°
2026-05-06 20:54 37.19471 -112.33397 34928 ft 490 kts 181°
2026-05-06 20:54 37.12661 -112.33804 34925 ft 489 kts 181°
2026-05-06 20:55 37.05859 -112.34222 34934 ft 489 kts 180°
2026-05-06 20:55 36.99059 -112.34634 34935 ft 489 kts 180°
2026-05-06 20:56 36.92266 -112.35047 34939 ft 488 kts 180°
2026-05-06 20:56 36.85484 -112.35454 34960 ft 488 kts 180°
2026-05-06 20:57 36.78709 -112.35859 34957 ft 487 kts 180°
2026-05-06 20:57 36.71941 -112.36261 34976 ft 487 kts 180°
2026-05-06 20:58 36.65175 -112.36661 34981 ft 487 kts 180°
2026-05-06 20:58 36.58413 -112.37076 34988 ft 486 kts 180°
2026-05-06 20:59 36.51656 -112.37484 34986 ft 486 kts 180°
2026-05-06 20:59 36.44903 -112.37886 34991 ft 486 kts 180°
2026-05-06 21:00 36.38149 -112.38280 34987 ft 486 kts 179°
2026-05-06 21:00 36.31409 -112.38673 34957 ft 481 kts 180°
2026-05-06 21:00 36.28109 -112.38876 34879 ft 469 kts 180°
2026-05-06 21:01 36.24825 -112.39074 33855 ft 480 kts 179°
2026-05-06 21:01 36.21477 -112.39266 33191 ft 481 kts 179°
2026-05-06 21:01 36.18133 -112.39458 32581 ft 480 kts 179°
2026-05-06 21:01 36.14802 -112.39650 31961 ft 480 kts 179°
2026-05-06 21:02 36.11483 -112.39521 31330 ft 475 kts 169°
2026-05-06 21:02 36.08263 -112.38743 30698 ft 469 kts 159°
2026-05-06 21:02 36.05235 -112.37340 30025 ft 463 kts 149°
2026-05-06 21:02 36.02498 -112.35401 29337 ft 457 kts 142°
2026-05-06 21:03 35.99783 -112.33245 29104 ft 459 kts 142°
2026-05-06 21:03 35.97159 -112.31189 29154 ft 444 kts 143°
2026-05-06 21:03 35.94578 -112.29186 29162 ft 437 kts 143°
2026-05-06 21:04 35.89460 -112.25205 29175 ft 434 kts 142°
2026-05-06 21:04 35.84368 -112.21227 28972 ft 433 kts 142°
2026-05-06 21:05 35.79291 -112.17258 28981 ft 431 kts 142°
2026-05-06 21:05 35.74225 -112.13306 28983 ft 431 kts 142°
2026-05-06 21:06 35.69157 -112.09359 28984 ft 431 kts 143°
2026-05-06 21:06 35.64081 -112.05419 28977 ft 432 kts 143°
2026-05-06 21:07 35.58999 -112.01485 29002 ft 432 kts 143°
2026-05-06 21:07 35.53918 -111.97561 29069 ft 431 kts 143°
2026-05-06 21:08 35.49671 -111.94276 29074 ft 431 kts 143°
2026-05-06 21:08 35.44632 -111.90378 29070 ft 431 kts 143°
2026-05-06 21:09 35.39568 -111.86473 29063 ft 430 kts 143°
2026-05-06 21:09 35.34499 -111.82579 29053 ft 430 kts 143°
2026-05-06 21:10 35.29433 -111.78702 29032 ft 429 kts 143°
2026-05-06 21:10 35.24367 -111.74816 29004 ft 430 kts 143°
2026-05-06 21:11 35.19306 -111.70927 29001 ft 430 kts 143°
2026-05-06 21:11 35.13796 -111.68000 29176 ft 438 kts 163°
2026-05-06 21:11 35.10778 -111.67415 29173 ft 441 kts 174°
2026-05-06 21:12 35.07707 -111.67344 29175 ft 442 kts 177°
2026-05-06 21:12 35.01552 -111.67277 29146 ft 442 kts 177°
2026-05-06 21:13 34.95402 -111.67190 29093 ft 441 kts 177°
2026-05-06 21:13 34.89279 -111.67114 29123 ft 439 kts 177°
2026-05-06 21:14 34.83173 -111.67051 29128 ft 438 kts 177°
2026-05-06 21:14 34.77082 -111.66976 29100 ft 437 kts 177°
2026-05-06 21:15 34.71003 -111.66898 29094 ft 435 kts 178°
2026-05-06 21:15 34.64958 -111.66828 29071 ft 434 kts 178°
2026-05-06 21:16 34.58932 -111.66762 29037 ft 433 kts 178°
2026-05-06 21:16 34.55904 -111.66731 28807 ft 438 kts 178°
2026-05-06 21:16 34.52845 -111.66698 28179 ft 438 kts 178°
2026-05-06 21:16 34.49830 -111.66666 27861 ft 427 kts 178°
2026-05-06 21:17 34.46929 -111.66637 27147 ft 418 kts 178°
2026-05-06 21:17 34.44079 -111.66809 26745 ft 404 kts 187°
2026-05-06 21:17 34.41375 -111.67504 26309 ft 391 kts 193°
2026-05-06 21:17 34.38746 -111.68306 25880 ft 389 kts 193°
2026-05-06 21:18 34.36128 -111.69102 25438 ft 387 kts 193°
2026-05-06 21:18 34.33523 -111.69896 24993 ft 386 kts 193°
2026-05-06 21:18 34.30922 -111.70687 24540 ft 385 kts 193°
2026-05-06 21:18 34.28327 -111.71475 24077 ft 384 kts 193°
2026-05-06 21:19 34.25732 -111.72262 23622 ft 384 kts 192°
2026-05-06 21:19 34.23137 -111.73050 23106 ft 384 kts 192°
2026-05-06 21:19 34.20554 -111.73833 22647 ft 382 kts 192°
2026-05-06 21:19 34.17986 -111.74612 22196 ft 380 kts 193°
2026-05-06 21:20 34.15430 -111.75390 21750 ft 378 kts 193°
2026-05-06 21:20 34.12883 -111.76161 21313 ft 376 kts 193°
2026-05-06 21:20 34.10354 -111.76924 20870 ft 374 kts 193°
2026-05-06 21:20 34.07828 -111.77684 20432 ft 373 kts 193°
2026-05-06 21:21 34.05313 -111.78437 19988 ft 372 kts 192°
2026-05-06 21:21 34.02756 -111.78814 19544 ft 369 kts 178°
2026-05-06 21:21 34.00231 -111.78430 19098 ft 366 kts 163°
2026-05-06 21:21 33.97878 -111.77316 18683 ft 362 kts 148°
2026-05-06 21:22 33.95782 -111.75653 18254 ft 360 kts 143°
2026-05-06 21:22 33.93729 -111.73932 17771 ft 359 kts 143°
2026-05-06 21:22 33.91678 -111.72221 17340 ft 358 kts 143°
2026-05-06 21:22 33.89633 -111.70521 16934 ft 356 kts 143°
2026-05-06 21:23 33.87598 -111.68831 16526 ft 354 kts 143°
2026-05-06 21:23 33.85576 -111.67152 16128 ft 352 kts 143°
2026-05-06 21:23 33.83563 -111.65479 15722 ft 351 kts 143°
2026-05-06 21:23 33.81556 -111.63812 15326 ft 349 kts 143°
2026-05-06 21:24 33.79559 -111.62152 14918 ft 349 kts 143°
2026-05-06 21:24 33.77577 -111.60505 14611 ft 345 kts 143°
2026-05-06 21:24 33.75602 -111.58864 14237 ft 343 kts 144°
2026-05-06 21:24 33.73637 -111.57233 13843 ft 343 kts 143°
2026-05-06 21:25 33.71679 -111.55608 13409 ft 341 kts 143°
2026-05-06 21:25 33.69735 -111.53997 12999 ft 339 kts 143°
2026-05-06 21:25 33.67799 -111.52394 12619 ft 336 kts 143°
2026-05-06 21:25 33.65881 -111.50809 12193 ft 334 kts 143°
2026-05-06 21:26 33.63978 -111.49238 11787 ft 332 kts 143°
2026-05-06 21:26 33.62079 -111.47672 11418 ft 330 kts 143°
2026-05-06 21:26 33.60190 -111.46115 11049 ft 327 kts 143°
2026-05-06 21:26 33.58323 -111.44575 10586 ft 323 kts 143°
2026-05-06 21:27 33.56503 -111.43075 10127 ft 312 kts 143°
2026-05-06 21:27 33.54749 -111.41628 9707 ft 301 kts 143°
2026-05-06 21:27 33.53045 -111.40248 9306 ft 289 kts 148°
2026-05-06 21:27 33.51181 -111.39388 8933 ft 289 kts 168°
2026-05-06 21:28 33.49185 -111.39318 8541 ft 288 kts 189°
2026-05-06 21:28 33.47288 -111.40045 8124 ft 287 kts 209°
2026-05-06 21:28 33.45630 -111.41306 7793 ft 284 kts 215°
2026-05-06 21:28 33.44012 -111.42576 7664 ft 272 kts 214°
2026-05-06 21:29 33.42480 -111.43768 7530 ft 253 kts 213°
2026-05-06 21:29 33.41026 -111.44893 7311 ft 247 kts 214°
2026-05-06 21:29 33.39590 -111.46002 7059 ft 244 kts 214°
2026-05-06 21:29 33.38118 -111.47000 6696 ft 247 kts 204°
2026-05-06 21:30 33.36417 -111.47582 6059 ft 263 kts 189°
2026-05-06 21:30 33.34597 -111.47654 5630 ft 258 kts 181°
2026-05-06 21:30 33.32849 -111.47642 5408 ft 243 kts 181°
2026-05-06 21:30 33.31227 -111.47640 5293 ft 224 kts 180°
2026-05-06 21:31 33.29734 -111.47638 5238 ft 207 kts 181°
2026-05-06 21:31 33.28339 -111.47630 4873 ft 199 kts 181°
2026-05-06 21:31 33.26963 -111.47628 4380 ft 195 kts 184°
2026-05-06 21:31 33.25709 -111.47898 4169 ft 174 kts 200°
2026-05-06 21:32 33.24629 -111.48493 3733 ft 169 kts 215°
2026-05-06 21:32 33.23049 -111.50453 2928 ft 160 kts 243°
2026-05-06 21:32 33.22603 -111.51696 2946 ft 165 kts 255°
2026-05-06 21:33 33.22418 -111.53037 2930 ft 163 kts 269°
2026-05-06 21:33 33.22512 -111.54390 2945 ft 164 kts 281°
2026-05-06 21:33 33.22865 -111.55691 2922 ft 164 kts 295°
2026-05-06 21:33 33.23463 -111.56832 2963 ft 157 kts 308°
2026-05-06 21:34 33.24194 -111.57736 2933 ft 150 kts 316°
2026-05-06 21:34 33.24946 -111.58573 2759 ft 146 kts 314°
2026-05-06 21:34 33.25660 -111.59431 2616 ft 146 kts 313°
2026-05-06 21:34 33.26372 -111.60286 2462 ft 146 kts 314°
2026-05-06 21:35 33.27090 -111.61143 2219 ft 146 kts 315°
2026-05-06 21:35 33.27802 -111.61984 2016 ft 145 kts 315°
2026-05-06 21:35 33.28525 -111.62823 1821 ft 144 kts 314°
2026-05-06 21:35 33.29238 -111.63659 1614 ft 144 kts 315°
2026-05-06 21:36 33.29946 -111.64481 1397 ft 138 kts 313°
2026-05-06 21:36 33.30522 -111.65152 1380 ft 79 kts 317°
2026-05-06 21:36 33.30782 -111.65452 1374 ft 45 kts 315°
2026-05-06 21:36 33.30949 -111.65645 1369 ft 17 kts 316°
2026-05-06 21:37 33.30932 -111.65757 1366 ft 16 kts 225°
2026-05-06 21:37 33.30848 -111.65856 1365 ft 18 kts 225°
2026-05-06 21:37 33.30762 -111.65960 1369 ft 18 kts 226°
2026-05-06 21:37 33.30676 -111.66066 1365 ft 16 kts 225°
2026-05-06 21:38 33.30633 -111.66161 1366 ft 12 kts 285°
2026-05-06 21:38 33.30695 -111.66248 1365 ft 15 kts 304°
2026-05-06 21:38 33.30702 -111.66370 1366 ft 15 kts 269°
2026-05-06 21:38 33.30701 -111.66498 1367 ft 16 kts 270°
2026-05-06 21:39 33.30703 -111.66641 1365 ft 18 kts 271°
2026-05-06 21:39 33.30664 -111.66746 1364 ft 14 kts 202°
2026-05-06 21:39 33.30635 -111.66804 1364 ft 8 kts 267°
2026-05-06 21:39 33.30635 -111.66841 1363 ft 2 kts 271°
2026-05-06 21:40 33.30635 -111.66847 1363 ft 0 kts 271°